Marion, SC

7:12 PM EDT on September 25, 2017 (GMT -0400)
Marion County

Weather History for KMAO - March, 2013

Change the Weather History Date:

Monday, March 25, 2013

  Actual Average (KFLO) Record (KFLO)
Temperature  
Mean Temperature 46 °F -  
Max Temperature 51 °F 66 °F 89 °F (2007)
Min Temperature 41 °F 44 °F 27 °F (1956)
Degree Days  
Heating Degree Days 19    
Moisture  
Dew Point 33 °F    
Average Humidity 65    
Maximum Humidity 100    
Minimum Humidity 37    
Precipitation  
Precipitation 0.00 in - - ()
Sea Level Pressure  
Sea Level Pressure 29.69 in    
Wind  
Wind Speed 11 mph (WSW)    
Max Wind Speed 26 mph    
Max Gust Speed 38 mph    
Visibility 10 miles    
Events      
Averages and records for this station are not official NWS values.
T = Trace of Precipitation, MM = Missing Value Source: NWS Daily Summary

Daily Weather History Graph

Daily Weather History Graph

Search for Another Location

Airport or City:

Trip Planner

Search our weather history database for the weather conditions in past years. The results will help you decide how hot, cold, wet, or windy it might be!

Date:

Astronomy

Mar. 25, 2013 Rise Set
Actual Time 7:13 AM EDT 7:33 PM EDT
Civil Twilight 6:48 AM EDT 7:58 PM EDT
Nautical Twilight 6:19 AM EDT 8:27 PM EDT
Astronomical Twilight 5:49 AM EDT 8:57 PM EDT
Moon 6:05 PM EDT 5:52 AM EDT
Length of Visible Light 13h 09m
Length of Day
12h 19m
Waxing Gibbous, 96% of the Moon is Illuminated
Mar 25
Waxing Gibbous
Mar 27
Full
Apr 3
Last Quarter
Apr 10
New
Apr 18
First Quarter

Hourly Weather History & Observations

Time (EDT) Temp. Windchill Dew Point Humidity Pressure Visibility Wind Dir Wind Speed Gust Speed Precip Events Conditions
12:15 AM 42.8 °F 38.6 °F 42.8 °F 100% 29.58 in 10.0 mi NE 6.9 mph - N/A   Overcast
12:35 AM 42.8 °F 39.3 °F 42.8 °F 100% 29.57 in 10.0 mi NNE 5.8 mph - N/A   Overcast
12:55 AM 42.8 °F 39.3 °F 42.8 °F 100% 29.58 in 10.0 mi North 5.8 mph - N/A   Overcast
1:15 AM 41.0 °F - 41.0 °F 100% 29.59 in 10.0 mi Calm Calm - N/A   Overcast
1:35 AM 41.0 °F - 41.0 °F 100% 29.60 in 10.0 mi Calm Calm - N/A   Overcast
1:55 AM 41.0 °F - 41.0 °F 100% 29.61 in 10.0 mi Calm Calm - N/A   Overcast
2:15 AM 42.8 °F 41.1 °F 42.8 °F 100% 29.61 in 10.0 mi SW 3.5 mph - N/A   Overcast
2:35 AM 42.8 °F 41.1 °F 42.8 °F 100% 29.61 in 10.0 mi SW 3.5 mph - N/A   Overcast
2:55 AM 42.8 °F 40.1 °F 42.8 °F 100% 29.61 in 10.0 mi SW 4.6 mph - N/A   Overcast
3:15 AM 42.8 °F 39.3 °F 42.8 °F 100% 29.61 in 7.0 mi WSW 5.8 mph - N/A   Overcast
3:35 AM 42.8 °F 40.1 °F 42.8 °F 100% 29.61 in 7.0 mi SW 4.6 mph - N/A   Overcast
3:55 AM 42.8 °F 39.3 °F 42.8 °F 100% 29.61 in 10.0 mi SW 5.8 mph - N/A   Overcast
4:15 AM 42.8 °F 39.3 °F 42.8 °F 100% 29.60 in 10.0 mi SSW 5.8 mph - N/A   Overcast
4:35 AM 42.8 °F 39.3 °F 42.8 °F 100% 29.60 in 7.0 mi SSW 5.8 mph - N/A   Overcast
5:15 AM 42.8 °F 36.6 °F 42.8 °F 100% 29.60 in 10.0 mi SW 11.5 mph 17.3 mph N/A   Overcast
5:35 AM 42.8 °F 38.0 °F 42.8 °F 100% 29.60 in 10.0 mi SW 8.1 mph - N/A   Overcast
5:55 AM 42.8 °F 37.0 °F 42.8 °F 100% 29.60 in 10.0 mi SW 10.4 mph - N/A   Overcast
6:15 AM 42.8 °F 38.0 °F 42.8 °F 100% 29.61 in 10.0 mi SW 8.1 mph - N/A   Overcast
6:35 AM 42.8 °F 37.5 °F 42.8 °F 100% 29.61 in 10.0 mi WSW 9.2 mph - N/A   Mostly Cloudy
6:55 AM 42.8 °F 35.8 °F 42.8 °F 100% 29.62 in 10.0 mi WSW 13.8 mph 18.4 mph N/A   Scattered Clouds
7:15 AM 42.8 °F 36.6 °F 41.0 °F 93% 29.63 in 10.0 mi WSW 11.5 mph - N/A   Clear
7:35 AM 42.8 °F 37.0 °F 39.2 °F 87% 29.63 in 10.0 mi WSW 10.4 mph 19.6 mph N/A   Clear
7:55 AM 42.8 °F 36.6 °F 37.4 °F 81% 29.63 in 10.0 mi WSW 11.5 mph - N/A   Clear
8:15 AM 42.8 °F 37.5 °F 35.6 °F 76% 29.64 in 10.0 mi WSW 9.2 mph 18.4 mph N/A   Clear
8:35 AM 42.8 °F 35.4 °F 35.6 °F 76% 29.65 in 10.0 mi WSW 15.0 mph 19.6 mph N/A   Clear
9:15 AM 44.6 °F 36.6 °F 33.8 °F 66% 29.66 in 10.0 mi West 19.6 mph 27.6 mph N/A   Clear
9:35 AM 44.6 °F 37.4 °F 33.8 °F 66% 29.67 in 10.0 mi West 16.1 mph 24.2 mph N/A   Clear
9:55 AM 46.4 °F 39.5 °F 33.8 °F 62% 29.67 in 10.0 mi West 17.3 mph 25.3 mph N/A   Clear
10:15 AM 46.4 °F 38.1 °F 32.0 °F 57% 29.67 in 10.0 mi West 24.2 mph 28.8 mph N/A   Scattered Clouds
10:55 AM 48.2 °F - 32.0 °F 54% 29.68 in 10.0 mi West 18.4 mph 31.1 mph N/A   Scattered Clouds
11:15 AM 48.2 °F - 32.0 °F 54% 29.68 in 10.0 mi WSW 21.9 mph 33.4 mph N/A   Scattered Clouds
11:35 AM 50.0 °F - 32.0 °F 50% 29.68 in 10.0 mi West 21.9 mph 28.8 mph N/A   Mostly Cloudy
11:55 AM 50.0 °F - 32.0 °F 50% 29.69 in 10.0 mi West 17.3 mph 27.6 mph N/A   Mostly Cloudy
12:15 PM 48.2 °F - 30.2 °F 50% 29.69 in 10.0 mi West 17.3 mph 26.5 mph N/A   Overcast
12:35 PM 48.2 °F - 30.2 °F 50% 29.69 in 10.0 mi West 20.7 mph 28.8 mph N/A   Overcast
12:55 PM 50.0 °F - 32.0 °F 50% 29.69 in 10.0 mi WSW 19.6 mph 29.9 mph N/A   Overcast
1:15 PM 50.0 °F - 30.2 °F 47% 29.69 in 10.0 mi West 20.7 mph 26.5 mph N/A   Overcast
1:35 PM 50.0 °F - 30.2 °F 47% 29.69 in 10.0 mi West 18.4 mph 27.6 mph N/A   Overcast
1:55 PM 50.0 °F - 30.2 °F 47% 29.69 in 10.0 mi West 25.3 mph 33.4 mph N/A   Overcast
2:15 PM 50.0 °F - 28.4 °F 43% 29.68 in 10.0 mi WSW 19.6 mph 29.9 mph N/A   Overcast
2:35 PM 51.8 °F - 26.6 °F 38% 29.68 in 10.0 mi West 18.4 mph 29.9 mph N/A   Overcast
2:55 PM 50.0 °F - 24.8 °F 37% 29.68 in 10.0 mi West 16.1 mph 32.2 mph N/A   Overcast
3:15 PM 50.0 °F - 26.6 °F 40% 29.68 in 10.0 mi West 18.4 mph 31.1 mph N/A   Overcast
3:35 PM 50.0 °F - 26.6 °F 40% 29.68 in 10.0 mi West 20.7 mph 31.1 mph N/A   Overcast
3:55 PM 50.0 °F - 26.6 °F 40% 29.69 in 10.0 mi West 20.7 mph 31.1 mph N/A   Overcast
4:15 PM 50.0 °F - 26.6 °F 40% 29.69 in 10.0 mi West 20.7 mph 29.9 mph N/A   Overcast
4:35 PM 50.0 °F - 26.6 °F 40% 29.70 in 10.0 mi West 26.5 mph 38.0 mph N/A   Overcast
4:55 PM 51.8 °F - 26.6 °F 38% 29.71 in 10.0 mi West 24.2 mph 34.5 mph N/A   Overcast
5:15 PM 50.0 °F - 24.8 °F 37% 29.71 in 10.0 mi West 21.9 mph 31.1 mph N/A   Mostly Cloudy
5:35 PM 50.0 °F - 24.8 °F 37% 29.72 in 10.0 mi West 12.7 mph 24.2 mph N/A   Overcast
5:55 PM 50.0 °F - 24.8 °F 37% 29.72 in 10.0 mi WSW 18.4 mph 33.4 mph N/A   Overcast
6:15 PM 50.0 °F - 24.8 °F 37% 29.73 in 10.0 mi West 18.4 mph 25.3 mph N/A   Overcast
6:35 PM 50.0 °F - 24.8 °F 37% 29.74 in 10.0 mi West 16.1 mph 27.6 mph N/A   Mostly Cloudy
7:15 PM 48.2 °F - 24.8 °F 40% 29.77 in 10.0 mi West 19.6 mph 28.8 mph N/A   Scattered Clouds
7:55 PM 46.4 °F 40.1 °F 24.8 °F 43% 29.80 in 10.0 mi West 15.0 mph 25.3 mph N/A   Scattered Clouds
8:15 PM 46.4 °F 40.1 °F 26.6 °F 46% 29.81 in 10.0 mi West 15.0 mph 20.7 mph N/A   Scattered Clouds
8:35 PM 44.6 °F 38.8 °F 26.6 °F 49% 29.82 in 10.0 mi West 11.5 mph 20.7 mph N/A   Clear
8:55 PM 44.6 °F 39.2 °F 26.6 °F 49% 29.83 in 10.0 mi West 10.4 mph - N/A   Clear
9:15 PM 44.6 °F 38.8 °F 24.8 °F 46% 29.84 in 10.0 mi West 11.5 mph 23.0 mph N/A   Clear
9:35 PM 44.6 °F 38.8 °F 24.8 °F 46% 29.85 in 10.0 mi West 11.5 mph 26.5 mph N/A   Clear
9:55 PM 44.6 °F 37.8 °F 24.8 °F 46% 29.86 in 10.0 mi West 15.0 mph 20.7 mph N/A   Clear
10:15 PM 42.8 °F 36.2 °F 24.8 °F 49% 29.87 in 10.0 mi West 12.7 mph 18.4 mph N/A   Clear
10:35 PM 42.8 °F 35.1 °F 24.8 °F 49% 29.88 in 10.0 mi West 16.1 mph 24.2 mph N/A   Clear
10:55 PM 42.8 °F 35.1 °F 26.6 °F 53% 29.89 in 10.0 mi West 16.1 mph 24.2 mph N/A   Clear
11:15 PM 42.8 °F 35.8 °F 24.8 °F 49% 29.90 in 10.0 mi West 13.8 mph 21.9 mph N/A   Clear
11:35 PM 42.8 °F 36.6 °F 24.8 °F 49% 29.90 in 10.0 mi West 11.5 mph 28.8 mph N/A   Clear
11:55 PM 41.0 °F 32.8 °F 26.6 °F 57% 29.91 in 10.0 mi West 16.1 mph 21.9 mph N/A   Clear